User: anonymous   Login
Location: Antichan
(42.9728°N, 0.6667°E)
Time: 17:45:50
(UTC+00:00)
Language:

Cosmos 1190 Rocket - Orbit

View from above orbital plane
View from above orbital plane
View from above satellite
View from above satellite

Ground track
Ground track

The orbit data is extracted from the following two-line orbital elements,

1 11870U 80056B   20295.98302401  .00000096  00000-0  41230-4 0  9990
2 11870  74.0511 121.8708 0015553 133.0424 227.2035 14.36985217110447
Epoch (UTC): 21 October 2020 23:35:33
Eccentricity: 0.0015553
inclination: 74.0511°
perigee height: 757 km
apogee height: 779 km
right ascension of ascending node: 121.8708°
argument of perigee: 133.0424°
revolutions per day: 14.36985217
mean anomaly at epoch: 227.2035°
orbit number at epoch: 11044

The dashed part of the orbit path shows where the satellite is in the earth's shadow,  

DLR